Time,TemperatureF,DewpointF,PressureIn,WindDirection,WindDirectionDegrees,WindSpeedMPH,WindSpeedGustMPH,Humidity,HourlyPrecipIn,Conditions,Clouds,dailyrainin,SoftwareType,DateUTC
2013-07-22 00:01:00,69.0,59.0,-100.00,South,180,6.0,12.0,69,-99.99,,,-99.99,,2013-07-22 07:01:00,
2013-07-22 00:11:00,69.0,59.0,-100.00,South,180,6.0,12.0,69,-99.99,,,-99.99,,2013-07-22 07:11:00,
2013-07-22 00:22:00,68.0,59.0,-100.00,South,180,4.0,10.0,72,-99.99,,,-99.99,,2013-07-22 07:22:00,
2013-07-22 00:43:00,66.0,59.0,-100.00,South,180,6.0,12.0,78,-99.99,,,-99.99,,2013-07-22 07:43:00,
2013-07-22 00:53:00,66.0,59.0,-100.00,South,180,6.0,12.0,78,-99.99,,,-99.99,,2013-07-22 07:53:00,
2013-07-22 01:01:00,66.0,59.0,-100.00,South,180,8.0,12.0,80,-99.99,,,-99.99,,2013-07-22 08:01:00,
2013-07-22 01:11:00,66.0,59.0,-100.00,South,180,8.0,12.0,80,-99.99,,,-99.99,,2013-07-22 08:11:00,
2013-07-22 01:22:00,65.0,59.0,-100.00,South,180,5.0,11.0,81,-99.99,,,-99.99,,2013-07-22 08:22:00,
2013-07-22 01:32:00,65.0,59.0,-100.00,South,180,8.0,12.0,82,-99.99,,,-99.99,,2013-07-22 08:32:00,
2013-07-22 01:43:00,64.0,59.0,-100.00,South,180,4.0,15.0,84,-99.99,,,-99.99,,2013-07-22 08:43:00,
2013-07-22 01:52:00,64.0,59.0,-100.00,South,180,4.0,15.0,84,-99.99,,,-99.99,,2013-07-22 08:52:00,
2013-07-22 02:02:00,63.0,58.0,-100.00,SW,225,6.0,12.0,85,-99.99,,,-99.99,,2013-07-22 09:02:00,
2013-07-22 02:22:00,62.0,58.0,-100.00,South,180,6.0,13.0,86,-99.99,,,-99.99,,2013-07-22 09:22:00,
2013-07-22 02:33:00,62.0,58.0,-100.00,SW,225,6.0,15.0,87,-99.99,,,-99.99,,2013-07-22 09:33:00,
2013-07-22 02:52:00,61.0,58.0,-100.00,South,180,5.0,12.0,88,-99.99,,,-99.99,,2013-07-22 09:52:00,
2013-07-22 03:01:00,61.0,58.0,-100.00,South,180,8.0,12.0,89,-99.99,,,-99.99,,2013-07-22 10:01:00,
2013-07-22 03:11:00,61.0,58.0,-100.00,South,180,5.0,16.0,90,-99.99,,,-99.99,,2013-07-22 10:11:00,
2013-07-22 03:22:00,61.0,58.0,-100.00,South,180,5.0,16.0,90,-99.99,,,-99.99,,2013-07-22 10:22:00,
2013-07-22 03:32:00,60.0,57.0,-100.00,South,180,6.0,11.0,90,-99.99,,,-99.99,,2013-07-22 10:32:00,
2013-07-22 03:43:00,60.0,58.0,-100.00,SW,225,6.0,12.0,91,-99.99,,,-99.99,,2013-07-22 10:43:00,
2013-07-22 03:53:00,60.0,58.0,-100.00,SW,225,6.0,12.0,91,-99.99,,,-99.99,,2013-07-22 10:53:00,
2013-07-22 04:01:00,60.0,57.0,-100.00,South,180,5.0,12.0,91,-99.99,,,-99.99,,2013-07-22 11:01:00,
2013-07-22 04:11:00,60.0,57.0,-100.00,South,180,5.0,12.0,91,-99.99,,,-99.99,,2013-07-22 11:11:00,
2013-07-22 04:22:00,60.0,58.0,-100.00,SW,225,6.0,11.0,92,-99.99,,,-99.99,,2013-07-22 11:22:00,
2013-07-22 04:32:00,60.0,58.0,-100.00,South,180,4.0,9.0,92,-99.99,,,-99.99,,2013-07-22 11:32:00,
2013-07-22 04:52:00,60.0,57.0,-100.00,SW,225,6.0,17.0,92,-99.99,,,-99.99,,2013-07-22 11:52:00,
2013-07-22 05:02:00,59.0,57.0,-100.00,South,180,6.0,13.0,92,-99.99,,,-99.99,,2013-07-22 12:02:00,
2013-07-22 05:11:00,59.0,57.0,-100.00,SW,225,9.0,16.0,92,-99.99,,,-99.99,,2013-07-22 12:11:00,
2013-07-22 05:22:00,59.0,57.0,-100.00,SW,225,9.0,16.0,92,-99.99,,,-99.99,,2013-07-22 12:22:00,
2013-07-22 05:32:00,59.0,57.0,-100.00,SW,225,5.0,13.0,92,-99.99,,,-99.99,,2013-07-22 12:32:00,
2013-07-22 05:43:00,59.0,57.0,-100.00,SW,225,8.0,15.0,92,-99.99,,,-99.99,,2013-07-22 12:43:00,
2013-07-22 05:53:00,59.0,57.0,-100.00,SW,225,8.0,15.0,92,-99.99,,,-99.99,,2013-07-22 12:53:00,
2013-07-22 06:11:00,59.0,57.0,-100.00,SW,225,8.0,15.0,92,-99.99,,,-99.99,,2013-07-22 13:11:00,
2013-07-22 06:21:00,59.0,57.0,-100.00,SW,225,6.0,10.0,92,-99.99,,,-99.99,,2013-07-22 13:21:00,
2013-07-22 06:53:00,59.0,56.0,-100.00,South,180,5.0,14.0,91,-99.99,,,-99.99,,2013-07-22 13:53:00,
2013-07-22 07:01:00,59.0,56.0,-100.00,South,180,5.0,14.0,91,-99.99,,,-99.99,,2013-07-22 14:01:00,
2013-07-22 07:22:00,59.0,56.0,-100.00,SW,225,8.0,15.0,90,-99.99,,,-99.99,,2013-07-22 14:22:00,
2013-07-22 07:53:00,60.0,56.0,-100.00,SW,225,7.0,15.0,88,-99.99,,,-99.99,,2013-07-22 14:53:00,
2013-07-22 08:01:00,60.0,56.0,-100.00,SW,225,8.0,16.0,88,-99.99,,,-99.99,,2013-07-22 15:01:00,
2013-07-22 08:11:00,60.0,56.0,-100.00,SW,225,8.0,16.0,88,-99.99,,,-99.99,,2013-07-22 15:11:00,
2013-07-22 08:22:00,60.0,56.0,-100.00,SW,225,7.0,18.0,87,-99.99,,,-99.99,,2013-07-22 15:22:00,
2013-07-22 08:52:00,60.0,56.0,-100.00,SW,225,9.0,16.0,87,-99.99,,,-99.99,,2013-07-22 15:52:00,
2013-07-22 09:11:00,61.0,57.0,-100.00,SW,225,7.0,14.0,85,-99.99,,,-99.99,,2013-07-22 16:11:00,
2013-07-22 09:21:00,61.0,56.0,-100.00,SW,225,9.0,16.0,85,-99.99,,,-99.99,,2013-07-22 16:21:00,
2013-07-22 09:32:00,61.0,56.0,-100.00,SW,225,12.0,18.0,85,-99.99,,,-99.99,,2013-07-22 16:32:00,
2013-07-22 09:52:00,61.0,56.0,-100.00,SW,225,10.0,18.0,84,-99.99,,,-99.99,,2013-07-22 16:52:00,
2013-07-22 10:01:00,61.0,56.0,-100.00,SW,225,10.0,18.0,84,-99.99,,,-99.99,,2013-07-22 17:01:00,
2013-07-22 10:11:00,61.0,56.0,-100.00,SW,225,10.0,18.0,84,-99.99,,,-99.99,,2013-07-22 17:11:00,
2013-07-22 10:23:00,62.0,56.0,-100.00,SW,225,10.0,21.0,82,-99.99,,,-99.99,,2013-07-22 17:23:00,
2013-07-22 10:32:00,63.0,56.0,-100.00,South,180,9.0,17.0,79,-99.99,,,-99.99,,2013-07-22 17:32:00,
2013-07-22 10:43:00,62.0,56.0,-100.00,South,180,10.0,21.0,80,-99.99,,,-99.99,,2013-07-22 17:43:00,
2013-07-22 10:52:00,62.0,56.0,-100.00,South,180,10.0,21.0,80,-99.99,,,-99.99,,2013-07-22 17:52:00,
2013-07-22 11:03:00,63.0,56.0,-100.00,South,180,9.0,20.0,77,-99.99,,,-99.99,,2013-07-22 18:03:00,
2013-07-22 11:13:00,63.0,56.0,-100.00,South,180,9.0,20.0,77,-99.99,,,-99.99,,2013-07-22 18:13:00,
2013-07-22 11:23:00,64.0,56.0,-100.00,South,180,11.0,19.0,77,-99.99,,,-99.99,,2013-07-22 18:23:00,
2013-07-22 11:33:00,64.0,56.0,-100.00,South,180,11.0,19.0,77,-99.99,,,-99.99,,2013-07-22 18:33:00,
2013-07-22 11:46:00,64.0,56.0,-100.00,South,180,12.0,23.0,76,-99.99,,,-99.99,,2013-07-22 18:46:00,
2013-07-22 12:02:00,66.0,57.0,-100.00,South,180,9.0,18.0,72,-99.99,,,-99.99,,2013-07-22 19:02:00,
2013-07-22 12:12:00,66.0,57.0,-100.00,South,180,9.0,18.0,72,-99.99,,,-99.99,,2013-07-22 19:12:00,
2013-07-22 12:22:00,65.0,56.0,-100.00,South,180,12.0,21.0,72,-99.99,,,-99.99,,2013-07-22 19:22:00,
2013-07-22 12:33:00,65.0,56.0,-100.00,South,180,12.0,21.0,72,-99.99,,,-99.99,,2013-07-22 19:33:00,
2013-07-22 12:43:00,68.0,56.0,-100.00,South,180,9.0,21.0,67,-99.99,,,-99.99,,2013-07-22 19:43:00,
2013-07-22 12:55:00,68.0,56.0,-100.00,South,180,9.0,21.0,67,-99.99,,,-99.99,,2013-07-22 19:55:00,
2013-07-22 13:22:00,69.0,56.0,-100.00,SW,225,11.0,20.0,64,-99.99,,,-99.99,,2013-07-22 20:22:00,
2013-07-22 13:32:00,70.0,56.0,-100.00,SW,225,9.0,24.0,61,-99.99,,,-99.99,,2013-07-22 20:32:00,
2013-07-22 13:43:00,70.0,56.0,-100.00,SW,225,12.0,19.0,60,-99.99,,,-99.99,,2013-07-22 20:43:00,
2013-07-22 13:52:00,70.0,56.0,-100.00,SW,225,12.0,19.0,60,-99.99,,,-99.99,,2013-07-22 20:52:00,
2013-07-22 14:01:00,70.0,56.0,-100.00,SW,225,12.0,19.0,60,-99.99,,,-99.99,,2013-07-22 21:01:00,
2013-07-22 14:11:00,72.0,56.0,-100.00,SW,225,12.0,21.0,59,-99.99,,,-99.99,,2013-07-22 21:11:00,
2013-07-22 14:22:00,72.0,56.0,-100.00,SW,225,12.0,26.0,57,-99.99,,,-99.99,,2013-07-22 21:22:00,
2013-07-22 14:32:00,74.0,56.0,-100.00,SW,225,12.0,20.0,55,-99.99,,,-99.99,,2013-07-22 21:32:00,
2013-07-22 14:53:00,74.0,57.0,-100.00,South,180,12.0,21.0,55,-99.99,,,-99.99,,2013-07-22 21:53:00,
2013-07-22 15:01:00,75.0,57.0,-100.00,SW,225,8.0,17.0,53,-99.99,,,-99.99,,2013-07-22 22:01:00,
2013-07-22 15:22:00,75.0,56.0,-100.00,SW,225,9.0,21.0,52,-99.99,,,-99.99,,2013-07-22 22:22:00,
2013-07-22 15:52:00,77.0,58.0,-100.00,SW,225,8.0,21.0,53,-99.99,,,-99.99,,2013-07-22 22:52:00,
2013-07-22 16:11:00,77.0,58.0,-100.00,SW,225,9.0,20.0,52,-99.99,,,-99.99,,2013-07-22 23:11:00,
2013-07-22 16:22:00,77.0,58.0,-100.00,South,180,9.0,20.0,53,-99.99,,,-99.99,,2013-07-22 23:22:00,
2013-07-22 16:32:00,77.0,58.0,-100.00,South,180,9.0,20.0,53,-99.99,,,-99.99,,2013-07-22 23:32:00,
2013-07-22 16:42:00,77.0,58.0,-100.00,SW,225,10.0,19.0,51,-99.99,,,-99.99,,2013-07-22 23:42:00,
2013-07-22 16:52:00,77.0,58.0,-100.00,SW,225,10.0,19.0,51,-99.99,,,-99.99,,2013-07-22 23:52:00,
2013-07-22 17:01:00,77.0,57.0,-100.00,South,180,9.0,16.0,50,-99.99,,,-99.99,,2013-07-23 00:01:00,
2013-07-22 17:11:00,77.0,57.0,-100.00,South,180,9.0,16.0,50,-99.99,,,-99.99,,2013-07-23 00:11:00,
2013-07-22 17:22:00,78.0,57.0,-100.00,SW,225,7.0,19.0,49,-99.99,,,-99.99,,2013-07-23 00:22:00,
2013-07-22 17:32:00,78.0,57.0,-100.00,SW,225,7.0,19.0,49,-99.99,,,-99.99,,2013-07-23 00:32:00,
2013-07-22 17:52:00,79.0,57.0,-100.00,SW,225,8.0,22.0,47,-99.99,,,-99.99,,2013-07-23 00:52:00,
2013-07-22 18:11:00,79.0,57.0,-100.00,South,180,7.0,17.0,48,-99.99,,,-99.99,,2013-07-23 01:11:00,
2013-07-22 18:22:00,79.0,57.0,-100.00,SW,225,9.0,17.0,48,-99.99,,,-99.99,,2013-07-23 01:22:00,
2013-07-22 18:53:00,78.0,56.0,-100.00,South,180,8.0,17.0,46,-99.99,,,-99.99,,2013-07-23 01:53:00,
2013-07-22 19:01:00,78.0,56.0,-100.00,SW,225,10.0,16.0,47,-99.99,,,-99.99,,2013-07-23 02:01:00,
2013-07-22 19:11:00,78.0,56.0,-100.00,SW,225,10.0,16.0,47,-99.99,,,-99.99,,2013-07-23 02:11:00,
2013-07-22 19:22:00,79.0,56.0,-100.00,SW,225,6.0,19.0,46,-99.99,,,-99.99,,2013-07-23 02:22:00,
2013-07-22 19:33:00,78.0,56.0,-100.00,SW,225,7.0,16.0,46,-99.99,,,-99.99,,2013-07-23 02:33:00,
2013-07-22 19:43:00,78.0,55.0,-100.00,SW,225,7.0,16.0,46,-99.99,,,-99.99,,2013-07-23 02:43:00,
2013-07-22 19:53:00,78.0,55.0,-100.00,SW,225,7.0,16.0,46,-99.99,,,-99.99,,2013-07-23 02:53:00,
2013-07-22 20:01:00,78.0,55.0,-100.00,SW,225,5.0,16.0,46,-99.99,,,-99.99,,2013-07-23 03:01:00,
2013-07-22 20:11:00,77.0,55.0,-100.00,South,180,6.0,12.0,46,-99.99,,,-99.99,,2013-07-23 03:11:00,
2013-07-22 20:22:00,77.0,55.0,-100.00,South,180,6.0,12.0,46,-99.99,,,-99.99,,2013-07-23 03:22:00,
2013-07-22 20:33:00,77.0,55.0,-100.00,SW,225,6.0,12.0,47,-99.99,,,-99.99,,2013-07-23 03:33:00,
2013-07-22 20:52:00,76.0,56.0,-100.00,South,180,3.0,11.0,50,-99.99,,,-99.99,,2013-07-23 03:52:00,
2013-07-22 21:01:00,75.0,56.0,-100.00,South,180,5.0,11.0,52,-99.99,,,-99.99,,2013-07-23 04:01:00,
2013-07-22 21:11:00,75.0,56.0,-100.00,South,180,5.0,11.0,52,-99.99,,,-99.99,,2013-07-23 04:11:00,
2013-07-22 21:21:00,75.0,56.0,-100.00,SW,225,3.0,11.0,52,-99.99,,,-99.99,,2013-07-23 04:21:00,
2013-07-22 21:32:00,74.0,57.0,-100.00,SW,225,4.0,9.0,54,-99.99,,,-99.99,,2013-07-23 04:32:00,
2013-07-22 21:42:00,74.0,58.0,-100.00,SW,225,4.0,8.0,57,-99.99,,,-99.99,,2013-07-23 04:42:00,
2013-07-22 21:53:00,74.0,58.0,-100.00,SW,225,4.0,8.0,57,-99.99,,,-99.99,,2013-07-23 04:53:00,
2013-07-22 22:02:00,73.0,57.0,-100.00,SW,225,3.0,7.0,58,-99.99,,,-99.99,,2013-07-23 05:02:00,
2013-07-22 22:11:00,73.0,57.0,-100.00,SW,225,3.0,7.0,58,-99.99,,,-99.99,,2013-07-23 05:11:00,
2013-07-22 22:22:00,72.0,57.0,-100.00,South,180,3.0,9.0,59,-99.99,,,-99.99,,2013-07-23 05:22:00,
2013-07-22 22:33:00,72.0,57.0,-100.00,South,180,3.0,9.0,59,-99.99,,,-99.99,,2013-07-23 05:33:00,
2013-07-22 22:43:00,71.0,58.0,-100.00,SW,225,3.0,8.0,62,-99.99,,,-99.99,,2013-07-23 05:43:00,
2013-07-22 22:52:00,71.0,58.0,-100.00,SW,225,3.0,8.0,62,-99.99,,,-99.99,,2013-07-23 05:52:00,
2013-07-22 23:01:00,71.0,57.0,-100.00,South,180,4.0,8.0,61,-99.99,,,-99.99,,2013-07-23 06:01:00,
2013-07-22 23:22:00,70.0,57.0,-100.00,SW,225,2.0,7.0,63,-99.99,,,-99.99,,2013-07-23 06:22:00,
2013-07-22 23:33:00,69.0,56.0,-100.00,SW,225,3.0,7.0,63,-99.99,,,-99.99,,2013-07-23 06:33:00,
2013-07-22 23:52:00,68.0,55.0,-100.00,SW,225,3.0,6.0,63,-99.99,,,-99.99,,2013-07-23 06:52:00,